Latest Coastal Weather Observations for Lihou Reef Lighthouse

IDQ60701

Issued at 12:31 pm EST Wednesday 2 September 2015 (issued every 10 minutes, with the page automatically refreshed every 10 minutes)

About coastal observations | Map of coastal stations | Coastal observations for QLD | Marine services | Other Formats
Station Details ID: 200880 Name: LIHOU REEF LIGHTHOUSE Lat: -17.13 Lon: 152.15 Height: 0.0 m
Data from the previous 72 hours. | See also: Recent months at Lihou Reef Lighthouse
Date/Time
EST
Temp

°C
Wind Pressure Rain
since 9am
mm
Weather Cloud Vis
km
Sea
Height
m
Swell
Dir
 
Speed
knots
Gust
knots
hPa Trend Height
m
Period
s
Dir
02/12:30pm 24.4 ESE 9 10 1018.1 - - - - - - - - -
02/12:00pm 24.4 ESE 8 10 1018.5 - - - - - - - - -
02/11:30am 24.2 ESE 8 10 1018.9 - - - - - - - - -
02/11:00am 24.2 ESE 9 11 1019.3 - - - - - - - - -
02/10:30am 24.0 ESE 9 11 1019.7 - - - - - - - - -
02/10:00am 24.2 ESE 9 11 1019.9 - - - - - - - - -
02/09:30am 24.2 ESE 9 11 1020.0 - - - - - - - - -
02/09:00am 24.3 ESE 9 11 1020.0 - - - - - - - - -
02/08:30am 24.1 ESE 9 11 1019.8 - - - - - - - - -
02/08:00am 24.2 ESE 8 10 1019.6 - - - - - - - - -
02/07:30am 24.1 ESE 8 10 1019.1 - - - - - - - - -
02/07:00am 23.9 ESE 8 11 1018.8 - - - - - - - - -
02/06:30am 23.7 E 8 11 1018.4 - - - - - - - - -
02/06:00am 23.3 ESE 8 10 1018.0 - - - - - - - - -
02/05:30am 23.2 ESE 8 11 1017.6 - - - - - - - - -
02/05:00am 23.1 ESE 8 10 1017.2 - - - - - - - - -
02/04:30am 23.1 ESE 8 10 1016.9 - - - - - - - - -
02/04:00am 23.0 ESE 8 10 1016.8 - - - - - - - - -
02/03:30am 23.1 ESE 8 10 1016.8 - - - - - - - - -
02/03:00am 23.1 ESE 9 11 1016.9 - - - - - - - - -
02/02:30am 23.1 E 9 11 1016.9 - - - - - - - - -
02/02:00am 23.0 E 9 12 1017.0 - - - - - - - - -
02/01:30am 23.1 E 10 11 1017.1 - - - - - - - - -
02/01:00am 23.1 E 10 13 1017.1 - - - - - - - - -
02/12:30am 23.1 E 10 12 1017.2 - - - - - - - - -
02/12:00am 23.2 E 9 12 1017.3 - - - - - - - - -
 
Date/Time
EST
Temp

°C
Wind Pressure Rain
since 9am
mm
Weather Cloud Vis
km
Sea
Height
m
Swell
Dir
 
Speed
knots
Gust
knots
hPa Trend Height
m
Period
s
Dir
01/11:30pm 23.2 ESE 9 13 1017.6 - - - - - - - - -
01/11:00pm 23.2 ESE 9 12 1017.7 - - - - - - - - -
01/10:30pm 23.4 ESE 9 12 1017.4 - - - - - - - - -
01/10:00pm 23.4 ESE 9 11 1017.4 - - - - - - - - -
01/09:30pm 23.4 ESE 11 13 1017.2 - - - - - - - - -
01/09:00pm 23.4 ESE 10 14 1017.0 - - - - - - - - -
01/08:30pm 23.7 ESE 11 14 1017.0 - - - - - - - - -
01/08:00pm 23.6 ESE 9 12 1016.6 - - - - - - - - -
01/07:30pm 23.6 ESE 9 11 1016.3 - - - - - - - - -
01/07:00pm 23.8 ESE 9 12 1016.0 - - - - - - - - -
01/06:30pm 23.7 ESE 10 12 1015.6 - - - - - - - - -
01/06:00pm 23.8 ESE 9 11 1015.3 - - - - - - - - -
01/05:30pm 23.9 ESE 9 11 1015.0 - - - - - - - - -
01/05:00pm 24.0 E 9 11 1014.9 - - - - - - - - -
01/04:30pm 24.1 ESE 9 11 1014.5 - - - - - - - - -
01/04:00pm 24.2 ESE 9 10 1014.4 - - - - - - - - -
01/03:30pm 24.3 ESE 8 10 1014.4 - - - - - - - - -
01/03:00pm 24.3 ESE 8 9 1014.6 - - - - - - - - -
01/02:30pm 24.4 ESE 8 10 1014.9 - - - - - - - - -
01/02:00pm 24.4 ESE 7 9 1015.3 - - - - - - - - -
01/01:30pm 24.3 ESE 8 11 1015.7 - - - - - - - - -
01/01:00pm 24.4 ESE 8 9 1016.1 - - - - - - - - -
01/12:30pm 24.3 ESE 7 9 1016.5 - - - - - - - - -
01/12:00pm 24.5 ESE 7 9 1016.9 - - - - - - - - -
01/11:30am 24.6 ESE 8 10 1017.4 - - - - - - - - -
01/11:00am 24.9 ESE 7 9 1017.7 - - - - - - - - -
01/10:30am 24.4 ESE 8 10 1017.9 - - - - - - - - -
01/10:00am 24.6 ESE 8 9 1018.0 - - - - - - - - -
01/09:30am 24.3 ESE 8 10 1018.0 - - - - - - - - -
01/09:00am 24.8 ESE 8 9 1017.9 - - - - - - - - -
01/08:30am 24.7 E 7 9 1017.6 - - - - - - - - -
01/08:00am 24.5 ESE 7 9 1017.3 - - - - - - - - -
01/07:30am 24.5 E 8 10 1017.0 - - - - - - - - -
01/07:00am 23.9 ESE 8 10 1016.5 - - - - - - - - -
01/06:30am 23.6 E 9 10 1016.2 - - - - - - - - -
01/06:00am 23.6 E 8 10 1015.8 - - - - - - - - -
01/05:30am 23.6 E 8 11 1015.4 - - - - - - - - -
01/05:00am 23.4 E 9 12 1015.2 - - - - - - - - -
01/04:30am 23.5 E 11 13 1014.9 - - - - - - - - -
01/04:00am 23.7 ESE 10 12 1014.9 - - - - - - - - -
01/03:30am 23.6 ESE 10 12 1015.1 - - - - - - - - -
01/03:00am 23.6 ESE 11 14 1015.0 - - - - - - - - -
01/02:30am 23.8 ESE 12 13 1015.2 - - - - - - - - -
01/02:00am 23.6 ESE 12 13 1015.3 - - - - - - - - -
01/01:30am 23.7 ESE 12 14 1015.4 - - - - - - - - -
01/01:00am 23.8 ESE 13 16 1015.6 - - - - - - - - -
01/12:30am 23.9 ESE 13 16 1015.8 - - - - - - - - -
01/12:00am 23.9 ESE 13 15 1016.1 - - - - - - - - -
 
Date/Time
EST
Temp

°C
Wind Pressure Rain
since 9am
mm
Weather Cloud Vis
km
Sea
Height
m
Swell
Dir
 
Speed
knots
Gust
knots
hPa Trend Height
m
Period
s
Dir
31/11:30pm 24.1 ESE 12 15 1016.4 - - - - - - - - -
31/11:00pm 24.0 ESE 12 14 1016.3 - - - - - - - - -
31/10:30pm 24.0 SE 11 14 1016.3 - - - - - - - - -
31/10:00pm 23.9 SE 11 12 1016.5 - - - - - - - - -
31/09:30pm 24.0 SE 11 13 1016.4 - - - - - - - - -
31/09:00pm 24.0 SE 12 14 1016.0 - - - - - - - - -
31/08:30pm 24.2 SE 12 14 1015.7 - - - - - - - - -
31/08:00pm 24.2 SE 10 12 1015.3 - - - - - - - - -
31/07:30pm 24.1 SE 10 12 1015.1 - - - - - - - - -
31/07:00pm 24.2 SE 9 12 1014.7 - - - - - - - - -
31/06:30pm 24.1 SE 8 10 1014.5 - - - - - - - - -
31/06:00pm 24.1 SSE 9 11 1014.3 - - - - - - - - -
31/05:30pm 24.2 SSE 7 9 1014.1 - - - - - - - - -
31/05:00pm 24.2 SSE 8 10 1013.9 - - - - - - - - -
31/04:30pm 24.3 SSE 8 10 1013.6 - - - - - - - - -
31/04:00pm 24.2 SSE 8 10 1013.3 - - - - - - - - -
31/03:30pm 24.4 SSE 7 9 1013.2 - - - - - - - - -
31/03:00pm 24.4 SSE 7 9 1013.3 - - - - - - - - -
31/02:30pm 24.3 SSE 7 9 1013.6 - - - - - - - - -
31/02:00pm 24.5 SSE 7 8 1013.9 - - - - - - - - -
31/01:30pm 24.4 SE 7 9 1014.2 - - - - - - - - -
31/01:00pm 24.4 SE 7 9 1014.5 - - - - - - - - -
31/12:30pm 24.3 SE 7 9 1014.8 - - - - - - - - -
31/12:00pm 24.2 SE 8 9 1015.0 - - - - - - - - -
31/11:30am 24.1 SE 9 11 1015.4 - - - - - - - - -
31/11:00am 24.2 SE 9 10 1015.8 - - - - - - - - -
31/10:30am 24.4 SE 8 9 1016.3 - - - - - - - - -
31/10:00am 24.3 SE 8 9 1016.6 - - - - - - - - -
31/09:30am 24.2 SSE 8 10 1016.6 - - - - - - - - -
31/09:00am 24.3 SSE 8 10 1016.6 - - - - - - - - -
31/08:30am 24.3 SSE 9 11 1016.5 - - - - - - - - -
31/08:00am 24.2 SSE 9 11 1016.3 - - - - - - - - -
31/07:30am 23.9 SSE 7 9 1016.0 - - - - - - - - -
31/07:00am 24.3 SE 5 7 1015.7 - - - - - - - - -
31/06:30am 23.8 SE 6 7 1015.4 - - - - - - - - -
31/06:00am 23.7 SSE 6 7 1015.0 - - - - - - - - -
31/05:30am 23.6 S 7 8 1014.7 - - - - - - - - -
31/05:00am 23.6 SSE 8 9 1014.3 - - - - - - - - -
31/04:30am 23.6 SSE 9 11 1014.2 - - - - - - - - -
31/04:00am 23.8 SSE 8 9 1014.1 - - - - - - - - -
31/03:30am 23.8 SSE 7 8 1014.1 - - - - - - - - -
31/03:00am 23.8 SSE 6 8 1014.2 - - - - - - - - -
31/02:30am 23.8 SSE 7 8 1014.4 - - - - - - - - -
31/02:00am 24.0 SSE 7 9 1014.7 - - - - - - - - -
31/01:30am 24.1 SE 5 6 1014.9 - - - - - - - - -
31/01:00am 24.1 SE 6 7 1015.0 - - - - - - - - -
31/12:30am 24.2 SE 6 7 1015.4 - - - - - - - - -
31/12:00am 24.4 SE 6 7 1015.5 - - - - - - - - -
 
Date/Time
EST
Temp

°C
Wind Pressure Rain
since 9am
mm
Weather Cloud Vis
km
Sea
Height
m
Swell
Dir
 
Speed
knots
Gust
knots
hPa Trend Height
m
Period
s
Dir
30/11:30pm 24.1 SE 6 8 1015.7 - - - - - - - - -
30/11:00pm 24.2 SE 7 8 1015.9 - - - - - - - - -
30/10:30pm 24.1 SE 6 7 1016.0 - - - - - - - - -
30/10:00pm 24.1 SE 7 8 1016.0 - - - - - - - - -
30/09:30pm 24.3 SSE 6 8 1016.0 - - - - - - - - -
30/09:00pm 24.1 SSE 7 8 1015.8 - - - - - - - - -
30/08:30pm 24.1 SSE 6 8 1015.9 - - - - - - - - -
30/08:00pm 24.3 SSE 7 8 1015.6 - - - - - - - - -
30/07:30pm 24.1 SSE 8 9 1015.3 - - - - - - - - -
30/07:00pm 24.1 SSE 8 9 1015.0 - - - - - - - - -
30/06:30pm 24.2 S 7 9 1014.5 - - - - - - - - -
30/06:00pm 24.2 S 7 8 1014.3 - - - - - - - - -
30/05:30pm 24.5 S 6 8 1014.1 - - - - - - - - -
30/05:00pm 24.4 SSE 5 6 1013.9 - - - - - - - - -
30/04:30pm 24.7 SSE 5 6 1013.8 - - - - - - - - -
30/04:00pm 24.7 SSE 5 6 1013.9 - - - - - - - - -
30/03:30pm 24.8 SSE 5 6 1013.7 - - - - - - - - -
30/03:00pm 24.7 SE 4 5 1013.9 - - - - - - - - -
30/02:30pm 24.8 SE 4 5 1014.0 - - - - - - - - -
30/02:00pm 24.9 ESE 4 5 1014.3 - - - - - - - - -
30/01:30pm 24.9 SE 4 5 1014.5 - - - - - - - - -
30/01:00pm 24.9 SSE 2 3 1014.9 - - - - - - - - -

Other Formats:

Comma delimited format used in spreadsheet applications
http://www.bom.gov.au/fwo/IDQ60701/IDQ60701.94293.axf

JavaScript Object Notation format (JSON) in row-major order
http://www.bom.gov.au/fwo/IDQ60701/IDQ60701.94293.json